period_start,C,m1,H,J0,J1,J2,J3,J4,J5,JA,JB,JC,JD,JJ,JK,JN,#
2015-11-15 00:00:50,0.04,4.27,0.00,15.38,19.74,23.79,15.17,50.91,1031.76,2060.99,2074.80,2116.99,2308.16,599.53,620.53,46.87,0000 0000 0000 0000 000000
2015-11-15 00:05:51,0.06,4.27,0.00,15.39,19.74,23.82,15.29,50.87,1031.77,2060.99,2074.00,2116.47,2307.86,599.78,620.63,46.92,0000 0000 0000 0000 000000
2015-11-15 00:10:52,0.06,4.27,0.00,15.38,19.72,23.75,15.29,50.88,1031.80,2060.99,2073.17,2116.01,2307.08,600.11,621.13,46.97,0000 0000 0000 0000 000000
2015-11-15 00:15:53,0.05,4.28,0.00,15.34,19.72,23.73,15.23,50.86,1031.95,2060.99,2072.38,2115.80,2306.79,599.79,620.75,47.02,0000 0000 0000 0000 000000
2015-11-15 00:20:54,0.07,4.28,0.00,15.37,19.72,23.73,15.23,50.86,1031.81,2060.99,2071.53,2115.05,2306.04,600.03,621.01,47.07,0000 0000 0000 0000 000000
2015-11-15 00:25:56,0.05,4.28,0.00,15.37,19.71,23.76,15.23,50.87,1031.81,2060.99,2070.73,2114.91,2305.56,599.73,620.67,47.12,0000 0000 0000 0000 000000
2015-11-15 00:30:57,0.06,4.29,0.00,15.33,19.70,23.75,15.25,50.95,1031.89,2060.99,2069.96,2114.18,2305.01,599.90,621.03,47.17,0000 0000 0000 0000 000000
2015-11-15 00:35:59,0.05,4.29,0.00,15.34,19.69,23.74,15.38,50.99,1031.95,2060.99,2069.09,2114.00,2304.69,600.39,621.45,47.22,0000 0000 0000 0000 000000
2015-11-15 00:41:00,0.07,4.29,0.00,15.34,19.69,23.70,15.24,50.90,1032.13,2061.01,2068.35,2113.63,2304.03,599.91,621.14,47.27,0000 0000 0000 0000 000000
2015-11-15 00:46:01,0.06,4.29,0.00,15.31,19.69,23.72,15.19,50.77,1032.20,2061.01,2067.53,2113.03,2303.59,599.74,621.11,47.32,0000 0000 0000 0000 000000
2015-11-15 00:51:02,0.02,4.30,0.00,15.33,19.69,23.68,15.31,50.98,1032.22,2061.01,2066.81,2112.96,2303.02,600.21,621.50,47.37,0000 0000 0000 0000 000000
2015-11-15 00:56:04,0.06,4.30,0.00,15.34,19.67,23.74,15.23,50.85,1032.24,2061.03,2066.04,2112.42,2302.92,600.00,621.19,47.42,0000 0000 0000 0000 000000
2015-11-15 01:01:05,0.06,4.30,0.00,15.31,19.67,23.75,15.24,50.91,1032.24,2061.04,2065.27,2112.01,2302.13,600.12,621.38,47.48,0000 0000 0000 0000 000000
2015-11-15 01:06:06,0.02,4.30,0.00,15.32,19.67,23.75,15.20,50.94,1032.24,2061.05,2064.71,2111.93,2301.98,599.67,620.98,47.53,0000 0000 0000 0000 000000
2015-11-15 01:11:07,0.08,4.31,0.00,15.32,19.67,23.74,15.24,51.02,1032.24,2061.03,2063.94,2111.22,2301.24,599.82,621.10,47.58,0000 0000 0000 0000 000000
2015-11-15 01:16:08,0.03,4.31,0.00,15.31,19.67,23.70,15.23,51.07,1032.23,2061.04,2063.11,2111.00,2300.98,599.90,621.38,47.63,0000 0000 0000 0000 000000
2015-11-15 01:21:10,0.05,4.31,0.00,15.31,19.66,23.72,15.26,51.07,1032.24,2061.05,2062.50,2110.99,2300.33,600.17,621.49,47.68,0000 0000 0000 0000 000000
2015-11-15 01:26:11,0.05,4.32,0.00,15.32,19.64,23.69,15.28,51.17,1032.24,2061.09,2061.82,2110.64,2300.00,599.99,621.30,47.73,0000 0000 0000 0000 000000
2015-11-15 01:31:12,0.04,4.32,0.00,15.30,19.64,23.72,15.29,51.13,1032.24,2061.05,2061.05,2110.04,2299.71,599.99,621.40,47.78,0000 0000 0000 0000 000000
2015-11-15 01:36:14,0.04,4.32,0.00,15.30,19.64,23.75,15.33,51.31,1032.24,2061.09,2060.60,2110.00,2299.06,600.21,621.41,47.83,0000 0000 0000 0000 000000
2015-11-15 01:41:15,0.02,4.32,0.00,15.30,19.64,23.70,15.26,51.01,1032.24,2061.15,2060.00,2109.93,2298.98,600.04,621.35,47.88,0000 0000 0000 0000 000000
2015-11-15 01:46:16,0.08,4.32,0.00,15.27,19.64,23.68,15.29,50.99,1032.24,2061.17,2059.36,2109.32,2298.47,599.94,621.36,47.93,0000 0000 0000 0000 000000
2015-11-15 01:51:18,0.03,4.33,0.00,15.28,19.63,23.66,15.22,51.07,1032.25,2061.17,2058.86,2109.01,2298.01,600.08,621.49,47.98,0000 0000 0000 0000 000000
2015-11-15 01:56:19,0.03,4.33,0.00,15.29,19.62,23.65,15.26,51.09,1032.25,2061.22,2058.06,2108.99,2297.88,599.83,621.35,48.03,0000 0000 0000 0000 000000
2015-11-15 02:01:20,0.07,4.33,0.00,15.26,19.62,23.67,15.29,51.08,1032.25,2061.38,2057.53,2108.90,2297.17,600.00,621.53,48.08,0000 0000 0000 0000 000000
2015-11-15 02:06:22,0.05,4.34,0.00,15.27,19.62,23.64,15.18,51.06,1032.24,2061.38,2056.93,2108.21,2297.00,599.57,620.98,48.13,0000 0000 0000 0000 000000
2015-11-15 02:11:23,0.05,4.34,0.00,15.29,19.62,23.62,15.27,51.13,1032.24,2061.50,2056.10,2108.02,2296.71,600.08,621.35,48.18,0000 0000 0000 0000 000000
2015-11-15 02:16:24,0.07,4.34,0.00,15.26,19.61,23.61,15.23,51.13,1032.26,2061.72,2055.60,2108.00,2296.05,600.07,621.49,48.23,0000 0000 0000 0000 000000
2015-11-15 02:21:26,0.01,4.34,0.00,15.26,19.60,23.66,15.18,51.11,1032.26,2061.78,2054.91,2107.96,2295.99,599.93,621.38,48.28,0000 0000 0000 0000 000000
2015-11-15 02:26:27,0.09,4.35,0.00,15.27,19.59,23.66,15.26,51.15,1032.28,2061.91,2054.13,2107.53,2295.53,599.99,621.46,48.33,0000 0000 0000 0000 000000
2015-11-15 02:31:29,0.04,4.35,0.00,15.24,19.59,23.63,15.29,51.13,1032.35,2061.93,2053.59,2107.04,2295.02,600.21,621.60,48.39,0000 0000 0000 0000 000000
2015-11-15 02:36:30,0.02,4.35,0.00,15.26,19.59,23.67,15.33,51.11,1032.30,2061.89,2052.84,2107.00,2294.78,599.99,621.40,48.44,0000 0000 0000 0000 000000
2015-11-15 02:41:31,0.05,4.35,0.00,15.27,19.59,23.62,15.27,51.15,1032.26,2061.89,2052.02,2106.96,2294.06,599.93,621.36,48.49,0000 0000 0000 0000 000000
2015-11-15 02:46:33,0.06,4.36,0.00,15.26,19.58,23.59,15.26,51.23,1032.30,2061.88,2051.18,2106.45,2293.98,600.01,621.54,48.54,0000 0000 0000 0000 000000
2015-11-15 02:51:34,0.05,4.36,0.00,15.28,19.57,23.65,15.28,51.17,1032.28,2061.96,2050.62,2106.04,2293.48,599.93,621.33,48.59,0000 0000 0000 0000 000000
2015-11-15 02:56:36,0.02,4.36,0.00,15.28,19.57,23.67,15.25,51.16,1032.27,2061.95,2049.87,2106.00,2293.00,600.11,621.49,48.64,0000 0000 0000 0000 000000
2015-11-15 03:01:37,0.04,4.36,0.00,15.26,19.57,23.60,15.15,51.09,1032.24,2061.97,2049.07,2105.93,2292.81,599.82,621.25,48.69,0000 0000 0000 0000 000000
2015-11-15 03:06:38,0.08,4.37,0.00,15.27,19.57,23.62,15.29,51.15,1032.25,2061.95,2048.46,2105.29,2292.09,599.97,621.43,48.74,0000 0000 0000 0000 000000
2015-11-15 03:11:39,0.03,4.37,0.00,15.29,19.57,23.61,15.27,51.12,1032.25,2061.96,2047.78,2105.02,2291.99,599.90,621.29,48.79,0000 0000 0000 0000 000000
2015-11-15 03:16:40,0.03,4.37,0.00,15.28,19.56,23.56,15.21,51.17,1032.28,2061.98,2047.04,2105.00,2291.60,599.94,621.48,48.84,0000 0000 0000 0000 000000
2015-11-15 03:21:42,0.02,4.37,0.00,15.28,19.55,23.59,15.34,51.24,1032.37,2061.97,2046.79,2104.92,2291.03,600.31,621.79,48.89,0000 0000 0000 0000 000000
2015-11-15 03:26:43,0.05,4.38,0.00,15.31,19.55,23.63,15.25,51.22,1032.48,2061.96,2046.04,2104.45,2290.96,599.96,621.44,48.94,0000 0000 0000 0000 000000
2015-11-15 03:31:44,0.07,4.38,0.00,15.30,19.54,23.65,15.26,51.18,1032.35,2061.99,2045.42,2104.03,2290.28,600.04,621.47,48.99,0000 0000 0000 0000 000000
2015-11-15 03:36:45,0.02,4.38,0.00,15.32,19.54,23.62,15.24,51.24,1032.27,2061.99,2044.74,2103.99,2289.99,599.94,621.20,49.04,0000 0000 0000 0000 000000
2015-11-15 03:41:46,0.04,4.38,0.00,15.32,19.54,23.59,15.21,51.20,1032.24,2061.98,2044.02,2103.87,2289.68,599.90,621.20,49.09,0000 0000 0000 0000 000000
2015-11-15 03:46:48,0.07,4.39,0.00,15.30,19.54,23.63,15.19,51.25,1032.24,2061.96,2043.23,2103.17,2289.03,599.72,621.06,49.14,0000 0000 0000 0000 000000
2015-11-15 03:51:49,0.02,4.39,0.00,15.30,19.54,23.62,15.32,51.29,1032.24,2061.98,2042.76,2103.01,2288.96,600.22,621.50,49.19,0000 0000 0000 0000 000000
2015-11-15 03:56:50,0.05,4.39,0.00,15.32,19.54,23.59,15.29,51.33,1032.25,2061.98,2042.00,2102.96,2288.24,599.96,621.33,49.25,0000 0000 0000 0000 000000
2015-11-15 04:01:52,0.07,4.39,0.00,15.29,19.54,23.63,15.20,51.27,1032.25,2061.97,2041.17,2102.31,2287.99,600.12,621.50,49.30,0000 0000 0000 0000 000000
2015-11-15 04:06:53,0.04,4.39,0.00,15.29,19.54,23.60,15.23,51.28,1032.26,2061.98,2040.53,2102.02,2287.74,600.02,621.42,49.35,0000 0000 0000 0000 000000
2015-11-15 04:11:54,0.02,4.40,0.00,15.32,19.54,23.60,15.23,51.25,1032.27,2061.97,2039.97,2101.99,2287.05,600.05,621.34,49.40,0000 0000 0000 0000 000000
2015-11-15 04:16:56,0.04,4.40,0.00,15.29,19.53,23.61,15.25,51.38,1032.27,2061.98,2039.19,2101.80,2286.97,599.83,621.27,49.45,0000 0000 0000 0000 000000
2015-11-15 04:21:57,0.08,4.40,0.00,15.28,19.53,23.60,15.30,51.29,1032.25,2061.98,2038.62,2101.12,2286.25,600.15,621.56,49.50,0000 0000 0000 0000 000000
2015-11-15 04:26:58,0.01,4.40,0.00,15.30,19.53,23.60,15.29,51.25,1032.25,2061.98,2038.00,2101.01,2286.01,600.12,621.37,49.55,0000 0000 0000 0000 000000
2015-11-15 04:31:59,0.04,4.41,0.00,15.30,19.53,23.63,15.29,51.27,1032.24,2061.99,2037.23,2101.00,2285.82,600.41,621.79,49.60,0000 0000 0000 0000 000000
2015-11-15 04:37:00,0.06,4.41,0.00,15.27,19.53,23.65,15.31,51.35,1032.27,2061.98,2036.71,2100.64,2285.07,600.17,621.60,49.65,0000 0000 0000 0000 000000
2015-11-15 04:42:02,0.03,4.41,0.00,15.29,19.53,23.58,15.23,51.17,1032.36,2061.98,2036.00,2100.06,2285.00,599.87,621.31,49.70,0000 0000 0000 0000 000000
2015-11-15 04:47:04,0.05,4.41,0.00,15.28,19.53,23.61,15.28,51.35,1032.56,2061.99,2035.24,2100.00,2284.49,600.05,621.74,49.75,0000 0000 0000 0000 000000
2015-11-15 04:52:05,0.03,4.42,0.00,15.27,19.53,23.57,15.20,51.30,1032.67,2061.98,2034.67,2099.88,2284.01,599.95,621.59,49.80,0000 0000 0000 0000 000000
2015-11-15 04:57:06,0.05,4.42,0.00,15.29,19.53,23.60,15.28,51.29,1032.73,2061.99,2034.02,2099.20,2283.95,599.92,621.57,49.85,0000 0000 0000 0000 000000
2015-11-15 05:02:07,0.05,4.42,0.00,15.29,19.52,23.62,15.21,51.42,1032.73,2061.99,2033.29,2099.00,2283.21,599.77,621.44,49.90,0000 0000 0000 0000 000000
2015-11-15 05:07:09,0.01,4.42,0.00,15.25,19.52,23.65,15.31,51.36,1032.73,2061.99,2032.80,2098.99,2282.99,600.25,621.91,49.95,0000 0000 0000 0000 000000
2015-11-15 05:12:10,0.06,4.42,0.00,15.27,19.53,23.60,15.26,51.31,1032.73,2061.99,2032.04,2098.69,2282.63,600.12,621.74,50.00,0000 0000 0000 0000 000000
2015-11-15 05:17:11,0.06,4.43,0.00,15.27,19.52,23.66,15.24,51.38,1032.73,2061.98,2031.37,2098.04,2282.03,599.64,621.35,50.05,0000 0000 0000 0000 000000
2015-11-15 05:22:12,0.01,4.43,0.00,15.26,19.52,23.59,15.28,51.26,1032.73,2061.99,2030.79,2098.00,2281.94,600.04,621.79,50.10,0000 0000 0000 0000 000000
2015-11-15 05:27:13,0.05,4.43,0.00,15.27,19.52,23.61,15.29,51.27,1032.73,2061.99,2030.02,2097.85,2281.15,600.08,621.83,50.15,0000 0000 0000 0000 000000
2015-11-15 05:32:14,0.07,4.44,0.00,15.27,19.52,23.63,15.31,51.24,1032.72,2061.99,2029.26,2097.13,2280.99,599.96,621.65,50.21,0000 0000 0000 0000 000000
2015-11-15 05:37:16,0.04,4.44,0.00,15.25,19.52,23.59,15.30,51.33,1032.71,2061.99,2028.69,2097.00,2280.50,600.07,621.76,50.26,0000 0000 0000 0000 000000
2015-11-15 05:42:17,0.02,4.44,0.00,15.27,19.52,23.63,15.21,51.27,1032.71,2061.99,2027.99,2096.94,2280.01,599.93,621.62,50.31,0000 0000 0000 0000 000000
2015-11-15 05:47:19,0.07,4.44,0.00,15.26,19.52,23.58,15.30,51.36,1032.61,2061.99,2027.21,2096.28,2279.91,599.90,621.50,50.36,0000 0000 0000 0000 000000
2015-11-15 05:52:20,0.05,4.45,0.00,15.23,19.52,23.62,15.28,51.48,1032.62,2061.99,2026.64,2096.01,2279.16,599.84,621.66,50.41,0000 0000 0000 0000 000000
2015-11-15 05:57:21,0.01,4.45,0.00,15.27,19.52,23.60,15.23,51.38,1032.72,2061.99,2025.98,2095.97,2278.98,599.94,621.65,50.46,0000 0000 0000 0000 000000
2015-11-15 06:02:23,0.09,4.45,0.00,15.26,19.52,23.61,15.32,51.35,1032.73,2061.99,2025.19,2095.37,2278.30,600.04,621.78,50.51,0000 0000 0000 0000 000000
2015-11-15 06:07:24,0.02,4.45,0.00,15.24,19.52,23.60,15.30,51.35,1032.73,2061.99,2024.70,2095.02,2277.99,600.12,621.82,50.56,0000 0000 0000 0000 000000
2015-11-15 06:12:25,0.02,4.46,0.00,15.27,19.52,23.65,15.36,51.23,1032.73,2061.99,2024.02,2095.00,2277.73,600.12,621.84,50.61,0000 0000 0000 0000 000000
2015-11-15 06:17:26,0.06,4.46,0.00,15.26,19.52,23.65,15.18,51.06,1032.74,2061.99,2023.42,2094.65,2277.05,599.92,621.57,50.66,0000 0000 0000 0000 000000
2015-11-15 06:22:28,0.04,4.46,0.00,15.26,19.53,23.63,15.34,51.21,1032.73,2061.99,2022.87,2094.04,2276.90,600.33,621.98,50.71,0000 0000 0000 0000 000000
2015-11-15 06:27:29,0.05,4.46,0.00,15.28,19.53,23.62,15.34,51.12,1032.73,2061.99,2022.07,2093.99,2276.13,600.19,621.79,50.76,0000 0000 0000 0000 000000
2015-11-15 06:32:30,0.05,4.46,0.00,15.27,19.54,23.62,15.30,51.21,1032.73,2061.99,2021.56,2093.67,2275.98,600.24,622.01,50.81,0000 0000 0000 0000 000000
2015-11-15 06:37:31,0.05,4.47,0.00,15.28,19.54,23.60,15.23,51.14,1032.73,2061.99,2021.00,2093.06,2275.50,599.78,621.38,50.86,0000 0000 0000 0000 000000
2015-11-15 06:42:33,0.03,4.47,0.00,15.30,19.54,23.62,15.24,51.36,1032.73,2061.99,2020.36,2093.00,2275.02,599.90,621.59,50.91,0000 0000 0000 0000 000000
2015-11-15 06:47:34,0.03,4.47,0.00,15.31,19.54,23.59,15.31,51.41,1032.73,2061.99,2019.83,2092.80,2274.88,600.34,622.05,50.96,0000 0000 0000 0000 000000
2015-11-15 06:52:35,0.08,4.48,0.00,15.30,19.54,23.63,15.23,51.34,1032.73,2061.99,2019.05,2092.10,2274.12,600.03,621.66,51.01,0000 0000 0000 0000 000000
2015-11-15 06:57:36,0.03,4.48,0.00,15.33,19.55,23.62,15.31,51.43,1032.73,2061.99,2018.33,2092.00,2273.98,599.96,621.56,51.07,0000 0000 0000 0000 000000
2015-11-15 07:02:37,0.03,4.48,0.00,15.31,19.55,23.64,15.29,51.27,1032.73,2061.99,2017.96,2091.88,2273.37,599.92,621.54,51.12,0000 0000 0000 0000 000000
2015-11-15 07:07:38,0.07,4.48,0.00,15.30,19.56,23.63,15.24,51.38,1032.71,2061.99,2017.18,2091.17,2273.00,599.91,621.48,51.17,0000 0000 0000 0000 000000
2015-11-15 07:12:39,0.03,4.48,0.00,15.33,19.57,23.63,15.31,51.40,1032.63,2061.99,2016.70,2091.00,2272.71,600.15,621.66,51.22,0000 0000 0000 0000 000000
2015-11-15 07:17:41,0.03,4.49,0.00,15.32,19.57,23.61,15.26,51.29,1032.67,2061.99,2016.02,2090.89,2272.03,599.92,621.55,51.27,0000 0000 0000 0000 000000
2015-11-15 07:22:42,0.06,4.49,0.00,15.30,19.57,23.65,15.31,51.32,1032.71,2061.98,2015.48,2090.19,2271.97,600.28,621.92,51.32,0000 0000 0000 0000 000000
2015-11-15 07:27:44,0.03,4.49,0.00,15.32,19.57,23.66,15.16,51.31,1032.70,2061.99,2014.89,2090.00,2271.33,599.77,621.36,51.37,0000 0000 0000 0000 000000
2015-11-15 07:32:45,0.04,4.49,0.00,15.31,19.57,23.65,15.33,51.27,1032.70,2061.99,2014.07,2089.87,2271.00,599.66,621.28,51.42,0000 0000 0000 0000 000000
2015-11-15 07:37:47,0.09,4.50,0.00,15.30,19.57,23.67,15.21,51.34,1032.72,2061.99,2013.43,2089.14,2270.45,599.70,621.33,51.47,0000 0000 0000 0000 000000
2015-11-15 07:42:48,0.01,4.50,0.00,15.32,19.57,23.63,15.25,51.43,1032.72,2061.99,2012.88,2089.00,2270.01,599.99,621.60,51.52,0000 0000 0000 0000 000000
2015-11-15 07:47:50,0.05,4.50,0.00,15.31,19.57,23.61,15.29,51.52,1032.70,2061.99,2012.08,2088.76,2269.77,600.12,621.83,51.57,0000 0000 0000 0000 000000
2015-11-15 07:52:51,0.07,4.51,0.00,15.29,19.57,23.63,15.22,51.40,1032.51,2061.99,2011.53,2088.07,2269.06,599.96,621.48,51.62,0000 0000 0000 0000 000000
2015-11-15 07:57:52,0.04,4.51,0.00,15.32,19.57,23.64,15.18,51.30,1032.63,2061.99,2010.69,2087.97,2268.72,599.86,621.42,51.67,0000 0000 0000 0000 000000
2015-11-15 08:02:54,0.07,4.51,0.00,15.32,19.57,23.62,15.24,51.35,1032.43,2061.98,2010.01,2087.36,2268.05,600.02,621.43,51.72,0000 0000 0000 0000 000000
2015-11-15 08:07:55,0.04,4.51,0.00,15.28,19.58,23.68,15.29,51.38,1032.33,2061.98,2009.28,2087.00,2267.83,600.17,621.53,51.77,0000 0000 0000 0000 000000
2015-11-15 08:12:56,0.05,4.52,0.00,15.30,19.59,23.64,15.18,51.48,1032.40,2061.99,2008.77,2086.80,2267.09,599.78,621.22,51.82,0000 0000 0000 0000 000000
2015-11-15 08:17:57,0.05,4.52,0.00,15.29,19.59,23.60,15.29,51.65,1032.45,2061.99,2008.04,2086.10,2266.91,599.98,621.47,51.87,0000 0000 0000 0000 000000
2015-11-15 08:22:58,0.06,4.52,0.00,15.27,19.59,23.69,15.32,51.61,1032.42,2061.98,2007.34,2085.97,2266.10,600.24,621.72,51.93,0000 0000 0000 0000 000000
2015-11-15 08:27:59,0.05,4.52,0.00,15.30,19.59,23.64,15.24,51.40,1032.42,2061.99,2006.80,2085.43,2265.99,600.02,621.31,51.98,0000 0000 0000 0000 000000
2015-11-15 08:33:01,0.05,4.53,0.00,15.29,19.59,23.63,15.29,51.58,1032.47,2061.98,2006.04,2085.01,2265.28,600.07,621.55,52.03,0000 0000 0000 0000 000000
2015-11-15 08:38:02,0.04,4.53,0.00,15.27,19.59,23.63,15.18,51.51,1032.58,2061.99,2005.24,2084.82,2264.99,599.73,621.37,52.08,0000 0000 0000 0000 000000
2015-11-15 08:43:03,0.07,4.53,0.00,15.28,19.59,23.64,15.26,51.40,1032.71,2061.99,2004.74,2084.06,2264.29,599.94,621.69,52.13,0000 0000 0000 0000 000000
2015-11-15 08:48:04,0.02,4.54,0.00,15.29,19.59,23.68,15.28,51.61,1032.72,2061.99,2004.02,2083.95,2263.99,599.98,621.60,52.18,0000 0000 0000 0000 000000
2015-11-15 08:53:05,0.09,4.54,0.00,15.28,19.59,23.68,15.23,51.58,1032.73,2061.99,2003.44,2083.29,2263.47,599.93,621.66,52.23,0000 0000 0000 0000 000000
2015-11-15 08:58:07,0.01,4.54,0.00,15.29,19.60,23.65,15.31,51.46,1032.73,2061.99,2002.95,2083.00,2263.01,600.16,621.84,52.28,0000 0000 0000 0000 000000
2015-11-15 09:03:08,0.05,4.54,0.00,15.31,19.60,23.67,15.33,51.52,1032.77,2061.99,2002.14,2082.84,2262.82,600.03,621.57,52.33,0000 0000 0000 0000 000000
2015-11-15 09:08:09,0.07,4.55,0.00,15.31,19.61,23.65,15.30,51.41,1032.83,2061.99,2001.73,2082.09,2262.06,600.12,621.76,52.38,0000 0000 0000 0000 000000
2015-11-15 09:13:11,0.02,4.55,0.00,15.32,19.62,23.63,15.24,51.48,1032.92,2061.99,2001.05,2082.00,2261.97,600.09,621.79,52.43,0000 0000 0000 0000 000000
2015-11-15 09:18:12,0.05,4.55,0.00,15.32,19.62,23.69,15.27,51.42,1033.03,2061.99,2000.59,2081.88,2261.44,599.93,621.73,52.48,0000 0000 0000 0000 000000
2015-11-15 09:23:13,0.05,4.55,0.00,15.32,19.62,23.64,15.27,51.45,1033.19,2061.99,2000.03,2081.14,2261.01,599.90,621.80,52.53,0000 0000 0000 0000 000000
2015-11-15 09:28:15,0.03,4.56,0.00,15.33,19.62,23.65,15.30,51.51,1033.21,2061.99,1999.59,2081.00,2260.81,599.99,621.95,52.58,0000 0000 0000 0000 000000
2015-11-15 09:33:16,0.04,4.56,0.00,15.36,19.64,23.65,15.30,51.48,1033.22,2061.99,1999.01,2080.86,2260.08,600.16,621.97,52.63,0000 0000 0000 0000 000000
2015-11-15 09:38:17,0.06,4.56,0.00,15.36,19.64,23.64,15.33,51.49,1033.22,2061.99,1998.35,2080.12,2259.99,600.11,621.91,52.68,0000 0000 0000 0000 000000
2015-11-15 09:43:19,0.02,4.56,0.00,15.35,19.64,23.66,15.19,51.48,1033.22,2061.96,1998.00,2079.99,2259.52,599.69,621.68,52.73,0000 0000 0000 0000 000000
2015-11-15 09:48:20,0.04,4.56,0.00,15.37,19.64,23.66,15.22,51.54,1033.23,2061.99,1997.50,2079.90,2259.02,600.01,621.65,52.78,0000 0000 0000 0000 000000
2015-11-15 09:53:21,0.05,4.57,0.00,15.37,19.64,23.64,15.27,51.40,1033.23,2061.99,1996.95,2079.15,2258.89,600.03,621.82,52.84,0000 0000 0000 0000 000000
2015-11-15 09:58:23,0.05,4.57,0.00,15.36,19.66,23.65,15.28,51.40,1033.22,2061.98,1996.22,2079.00,2258.16,599.83,621.64,52.89,0000 0000 0000 0000 000000
2015-11-15 10:03:24,0.01,4.57,0.00,15.41,19.67,23.69,15.27,51.36,1033.22,2061.98,1995.99,2078.88,2258.00,599.96,621.66,52.94,0000 0000 0000 0000 000000
2015-11-15 10:08:25,0.06,4.57,0.00,15.42,19.67,23.64,15.21,51.33,1033.22,2061.98,1995.42,2078.23,2257.89,599.94,621.59,52.99,0000 0000 0000 0000 000000
2015-11-15 10:13:26,0.03,4.58,0.00,15.40,19.67,23.67,15.25,51.39,1033.22,2061.98,1995.00,2078.02,2257.25,599.86,621.46,53.04,0000 0000 0000 0000 000000
2015-11-15 10:18:28,0.03,4.58,0.00,15.43,19.69,23.66,15.25,51.38,1033.22,2061.98,1994.44,2077.97,2256.99,600.07,621.84,53.09,0000 0000 0000 0000 000000
2015-11-15 10:23:29,0.04,4.58,0.00,15.46,19.69,23.69,15.27,51.59,1033.23,2061.98,1994.01,2077.51,2256.85,600.23,621.88,53.14,0000 0000 0000 0000 000000
2015-11-15 10:28:30,0.05,4.58,0.00,15.44,19.69,23.69,15.20,51.52,1033.24,2061.97,1993.58,2077.02,2256.12,599.92,621.70,53.19,0000 0000 0000 0000 000000
2015-11-15 10:33:32,0.01,4.58,0.00,15.48,19.70,23.73,15.24,51.54,1033.23,2061.97,1993.02,2076.98,2255.99,599.85,621.39,53.24,0000 0000 0000 0000 000000
2015-11-15 10:38:33,0.07,4.59,0.00,15.51,19.72,23.72,15.27,51.53,1033.22,2061.96,1992.61,2076.56,2255.61,600.34,621.88,53.29,0000 0000 0000 0000 000000
2015-11-15 10:43:34,0.03,4.59,0.00,15.48,19.72,23.75,15.24,51.39,1033.22,2061.91,1992.02,2076.02,2255.03,600.09,621.62,53.34,0000 0000 0000 0000 000000
2015-11-15 10:48:35,0.01,4.59,0.00,15.49,19.73,23.74,15.23,51.48,1033.23,2061.93,1991.89,2076.00,2254.99,599.97,621.51,53.39,0000 0000 0000 0000 000000
2015-11-15 10:53:37,0.04,4.59,0.00,15.53,19.74,23.75,15.28,51.43,1033.23,2061.96,1991.16,2075.93,2254.54,600.16,621.61,53.44,0000 0000 0000 0000 000000
2015-11-15 10:58:38,0.04,4.60,0.00,15.54,19.74,23.75,15.37,51.50,1033.22,2061.91,1990.93,2075.25,2254.03,600.36,621.78,53.49,0000 0000 0000 0000 000000
2015-11-15 11:03:39,0.01,4.60,0.00,15.53,19.75,23.77,15.28,51.50,1033.22,2061.61,1990.14,2075.00,2253.90,600.11,621.53,53.54,0000 0000 0000 0000 000000
2015-11-15 11:08:40,0.02,4.60,0.00,15.57,19.77,23.75,15.31,51.55,1033.23,2061.42,1989.94,2074.87,2253.17,600.11,621.45,53.59,0000 0000 0000 0000 000000
2015-11-15 11:13:41,0.04,4.60,0.00,15.59,19.77,23.82,15.25,51.58,1033.22,2061.23,1989.23,2074.17,2253.00,599.98,621.30,53.64,0000 0000 0000 0000 000000
2015-11-15 11:18:43,0.01,4.60,0.00,15.58,19.79,23.79,15.26,51.65,1033.22,2061.14,1988.99,2074.00,2252.74,600.14,621.45,53.69,0000 0000 0000 0000 000000
2015-11-15 11:23:44,0.04,4.60,0.00,15.62,19.79,23.78,15.28,51.68,1033.22,2061.08,1988.35,2073.91,2252.06,599.75,621.05,53.75,0000 0000 0000 0000 000000
2015-11-15 11:28:45,0.04,4.60,0.00,15.64,19.79,23.83,15.31,51.63,1033.23,2061.06,1987.96,2073.20,2251.96,600.00,621.10,53.80,0000 0000 0000 0000 000000
2015-11-15 11:33:47,0.05,4.61,0.00,15.63,19.81,23.80,15.27,51.53,1033.24,2061.04,1987.20,2072.99,2251.24,599.89,621.12,53.85,0000 0000 0000 0000 000000
2015-11-15 11:38:48,0.01,4.61,0.00,15.62,19.82,23.81,15.27,51.48,1033.31,2061.03,1986.96,2072.90,2251.00,600.00,621.37,53.90,0000 0000 0000 0000 000000
2015-11-15 11:43:50,0.07,4.61,0.00,15.65,19.82,23.85,15.27,51.61,1033.26,2061.02,1986.27,2072.19,2250.84,600.03,621.24,53.95,0000 0000 0000 0000 000000
2015-11-15 11:48:51,0.02,4.61,0.00,15.65,19.83,23.83,15.15,51.60,1033.23,2061.01,1985.93,2072.00,2250.12,599.90,621.03,54.00,0000 0000 0000 0000 000000
2015-11-15 11:53:52,0.04,4.61,0.00,15.62,19.84,23.87,15.25,51.59,1033.22,2061.02,1985.19,2071.92,2249.99,599.94,621.21,54.05,0000 0000 0000 0000 000000
2015-11-15 11:58:53,0.07,4.62,0.00,15.66,19.84,23.91,15.31,51.47,1033.21,2061.01,1984.75,2071.18,2249.43,600.02,621.17,54.10,0000 0000 0000 0000 000000
2015-11-15 12:03:55,0.02,4.62,0.00,15.68,19.86,23.85,15.27,51.46,1033.22,2061.00,1984.04,2070.99,2249.01,599.92,620.99,54.15,0000 0000 0000 0000 000000
2015-11-15 12:08:56,0.01,4.62,0.00,15.67,19.87,23.89,15.29,51.60,1032.93,2061.00,1983.92,2070.87,2248.81,600.35,621.32,54.20,0000 0000 0000 0000 000000
2015-11-15 12:13:57,0.09,4.63,0.00,15.67,19.87,23.94,15.24,51.54,1032.90,2061.00,1983.16,2070.13,2248.07,599.74,620.78,54.25,0000 0000 0000 0000 000000
2015-11-15 12:18:59,0.01,4.63,0.00,15.71,19.89,23.91,15.26,51.52,1033.11,2061.00,1982.86,2070.00,2247.99,600.09,621.08,54.30,0000 0000 0000 0000 000000
2015-11-15 12:24:00,0.07,4.63,0.00,15.72,19.89,23.89,15.28,51.41,1033.21,2061.00,1982.07,2069.70,2247.40,600.01,621.06,54.35,0000 0000 0000 0000 000000
2015-11-15 12:29:02,0.03,4.63,0.00,15.69,19.89,23.89,15.17,51.52,1032.93,2061.00,1981.78,2069.07,2247.01,599.88,620.80,54.40,0000 0000 0000 0000 000000
2015-11-15 12:34:03,0.04,4.63,0.00,15.73,19.92,23.95,15.31,51.45,1032.97,2061.00,1981.06,2069.00,2246.62,600.09,620.91,54.45,0000 0000 0000 0000 000000
2015-11-15 12:39:04,0.08,4.64,0.00,15.74,19.92,23.88,15.24,51.32,1032.92,2061.00,1980.43,2068.45,2246.04,600.40,621.12,54.50,0000 0000 0000 0000 000000
2015-11-15 12:44:06,0.02,4.64,0.00,15.73,19.92,23.95,15.28,51.40,1032.79,2061.00,1979.98,2068.01,2245.84,600.24,621.04,54.55,0000 0000 0000 0000 000000
2015-11-15 12:49:07,0.05,4.64,0.00,15.71,19.94,23.95,15.21,51.34,1032.73,2061.00,1979.38,2067.91,2245.12,599.90,620.63,54.61,0000 0000 0000 0000 000000
2015-11-15 12:54:08,0.04,4.64,0.00,15.75,19.94,23.96,15.30,51.52,1032.72,2061.00,1978.90,2067.12,2244.98,600.24,620.92,54.66,0000 0000 0000 0000 000000